Terminal Aerodrome Forecast
Issued by NWS Milwaukee/Sullivan, WI

Home | Current Version | Previous Version | Text Only | Print | Product List | Glossary On
Versions: 1 2 3 4 5 6 7 8 9 10 11 12 13 14 15 16 17 18 19 20 21 22 23 24 25 26 27 28 29 30 31 32 33 34 35 36 37 38 39 40 41 42 43 44 45 46 47 48 49 50
000
FTUS43 KMKX 280937 AAC
TAFMSN
TAF AMD
KMSN 280937Z 2810/2906 16011KT P6SM -SHRA OVC016
     FM281200 17007KT 5SM BR OVC008
     FM281500 19009KT P6SM OVC015
     FM281800 19013G20KT P6SM BKN035
     FM282300 18010G20KT P6SM SHRA VCTS BKN050CB
     FM290300 18008KT P6SM SHRA VCSH BKN090=

USA.gov is the U.S. government's official web portal to all federal, state and local government web resources and services.